Location: Newark
(50.0336°N, 22.0047°E)
Time: 19:49:31
(UTC+00:00)

Envisat - Pass Details

Date: 26 January 2020
Orbit: 764 x 766 km, 98.1° (Epoch: 19 February)

Event Time Altitude Azimuth Distance (km) Brightness Sun altitude
Rises 05:32:02 0° 13° (NNE) 3,245 6.2 -7.0°
Reaches altitude 10° 05:34:20 10° 13° (NNE) 2,314 5.4 -6.7°
Maximum altitude 05:39:27 83° 286° (WNW) 778 3.0 -5.9°
Drops below altitude 10° 05:44:31 10° 199° (SSW) 2,297 5.5 -5.1°
Sets 05:46:48 0° 199° (SSW) 3,218 6.3 -4.8°
